2021-10-03 00:03:13 r, 20.89m,0000000001Hz,0001223280c,0000002.655s, 021.9C,00002191
2021-10-03 00:13:16 r, 20.92m,0000000000Hz,0001251108c,0000002.715s, 021.9C,00002191
2021-10-03 00:23:14 r, 20.93m,0000000001Hz,0001266860c,0000002.749s, 021.9C,00002191
2021-10-03 00:33:13 r, 20.94m,0000000001Hz,0001271023c,0000002.758s, 021.5C,00002191
2021-10-03 00:43:14 r, 20.94m,0000000000Hz,0001279586c,0000002.777s, 021.2C,00002191
2021-10-03 00:53:16 r, 20.94m,0000000001Hz,0001283197c,0000002.785s, 020.9C,00002191
2021-10-03 01:03:13 r, 20.95m,0000000000Hz,0001298865c,0000002.819s, 020.9C,00002191
2021-10-03 01:13:15 r, 20.97m,0000000000Hz,0001311951c,0000002.847s, 020.6C,00002191
2021-10-03 01:23:14 r, 20.97m,0000000000Hz,0001321459c,0000002.868s, 020.6C,00002191
2021-10-03 01:33:13 r, 20.97m,0000000000Hz,0001320050c,0000002.865s, 020.3C,00002191
2021-10-03 01:43:16 r, 20.97m,0000000000Hz,0001321500c,0000002.868s, 020.3C,00002191
2021-10-03 01:53:14 r, 20.97m,0000000000Hz,0001324189c,0000002.874s, 019.9C,00002191
2021-10-03 02:03:13 r, 20.98m,0000000001Hz,0001335663c,0000002.899s, 019.9C,00002191
2021-10-03 02:13:16 r, 20.98m,0000000000Hz,0001342948c,0000002.914s, 019.6C,00002191
2021-10-03 02:23:14 r, 20.98m,0000000001Hz,0001340242c,0000002.909s, 019.6C,00002191
2021-10-03 02:33:13 r, 20.99m,0000000000Hz,0001344649c,0000002.918s, 019.6C,00002191
2021-10-03 02:43:14 r, 21.00m,0000000000Hz,0001358963c,0000002.949s, 019.6C,00002191
2021-10-03 02:53:15 r, 21.00m,0000000001Hz,0001356746c,0000002.944s, 019.3C,00002191
2021-10-03 03:03:13 r, 20.99m,0000000000Hz,0001350710c,0000002.931s, 019.3C,00002191
2021-10-03 03:13:15 r, 20.97m,0000000001Hz,0001326457c,0000002.879s, 019.3C,00002191
2021-10-03 03:23:14 r, 20.95m,0000000001Hz,0001298671c,0000002.818s, 019.0C,00002191
2021-10-03 03:33:13 r, 20.95m,0000000001Hz,0001296872c,0000002.814s, 019.0C,00002191
2021-10-03 03:43:15 r, 20.94m,0000000000Hz,0001286807c,0000002.793s, 018.6C,00002191
2021-10-03 03:53:14 r, 20.92m,0000000001Hz,0001265519c,0000002.746s, 018.6C,00002191
2021-10-03 04:03:13 r, 20.91m,0000000000Hz,0001245663c,0000002.703s, 018.6C,00002191
2021-10-03 04:13:16 r, 20.89m,0000000001Hz,0001223052c,0000002.654s, 018.6C,00002191
2021-10-03 04:23:14 r, 20.86m,0000000000Hz,0001189325c,0000002.581s, 018.6C,00002191
2021-10-03 04:33:13 r, 20.84m,0000000000Hz,0001177710c,0000002.556s, 018.6C,00002191
2021-10-03 04:43:16 r, 20.83m,0000000000Hz,0001161480c,0000002.521s, 018.6C,00002191
2021-10-03 04:53:14 r, 20.82m,0000000000Hz,0001150121c,0000002.496s, 018.6C,00002191
2021-10-03 05:03:13 r, 20.81m,0000000000Hz,0001140425c,0000002.475s, 018.3C,00002191
2021-10-03 05:13:14 r, 20.79m,0000000000Hz,0001118384c,0000002.427s, 018.3C,00002191
2021-10-03 05:23:15 r, 20.77m,0000000000Hz,0001102944c,0000002.394s, 018.3C,00002191
2021-10-03 05:33:15 r, 20.75m,0000000001Hz,0001073166c,0000002.329s, 018.0C,00002191
2021-10-03 05:43:15 r, 20.75m,0000000001Hz,0001077024c,0000002.337s, 018.0C,00002191
2021-10-03 05:53:14 r, 20.78m,0000000000Hz,0001106236c,0000002.401s, 018.0C,00002191
2021-10-03 06:03:13 r, 20.72m,0000000001Hz,0001044135c,0000002.266s, 018.0C,00002191
2021-10-03 06:13:16 r, 20.36m,0000000000Hz,0000760059c,0000001.649s, 017.7C,00002191
2021-10-03 06:23:14 r, 19.67m,0000000001Hz,0000400280c,0000000.869s, 017.7C,00002191
2021-10-03 06:33:13 r, 18.44m,0000000004Hz,0000130351c,0000000.283s, 017.7C,00002191
2021-10-03 06:44:33 r, 16.85m,0000000015Hz,0000030093c,0000000.065s, 017.7C,00002191
2021-10-03 06:53:14 r, 14.93m,0000000089Hz,0000005158c,0000000.011s, 017.7C,00002191
2021-10-03 07:16:41 r, 12.77m,0000000661Hz,0000000000c,0000000.000s, 017.7C,00002191
2021-10-03 07:16:41 r, 10.64m,0000004683Hz,0000000000c,0000000.000s, 017.7C,00002191
2021-10-03 07:26:14 r, 08.77m,0000026367Hz,0000000000c,0000000.000s, 017.7C,00002191
2021-10-03 07:33:13 r, 07.57m,0000079870Hz,0000000000c,0000000.000s, 017.7C,00002191
2021-10-03 07:43:28 r, 06.73m,0000172629Hz,0000000000c,0000000.000s, 017.7C,00002191
2021-10-03 07:55:52 r, 06.17m,0000287038Hz,0000000000c,0000000.000s, 018.0C,00002191
2021-10-03 08:04:18 r, 00.00m,0000402382Hz,0000000000c,0000000.000s, 018.0C,00002191
2021-10-03 08:13:14 r, 00.00m,0000523014Hz,0000000000c,0000000.000s, 018.3C,00002191
2021-10-03 08:23:16 r, 00.00m,0000597685Hz,0000000000c,0000000.000s, 018.3C,00002191
2021-10-03 08:33:13 r, 00.00m,0000597560Hz,0000000000c,0000000.000s, 018.6C,00002191
2021-10-03 08:46:44 r, 00.00m,0000597601Hz,0000000000c,0000000.000s, 019.3C,00002191
2021-10-03 08:53:27 r, 00.00m,0000597546Hz,0000000000c,0000000.000s, 020.3C,00002191
2021-10-03 09:03:13 r, 00.00m,0000597319Hz,0000000000c,0000000.000s, 021.2C,00002191
2021-10-03 09:13:13 r, 00.00m,0000597250Hz,0000000000c,0000000.000s, 022.8C,00002191
2021-10-03 09:23:14 r, 00.00m,0000597094Hz,0000000000c,0000000.000s, 024.1C,00002191
2021-10-03 09:33:13 r, 00.00m,0000597106Hz,0000000000c,0000000.000s, 024.8C,00002191
2021-10-03 09:43:13 r, 00.00m,0000597063Hz,0000000000c,0000000.000s, 025.1C,00002191
2021-10-03 09:53:15 r, 00.00m,0000596979Hz,0000000000c,0000000.000s, 025.7C,00002191
2021-10-03 10:03:13 r, 00.00m,0000596890Hz,0000000000c,0000000.000s, 026.4C,00002191
2021-10-03 10:13:13 r, 00.00m,0000596699Hz,0000000000c,0000000.000s, 027.7C,00002191
2021-10-03 10:23:16 r, 00.00m,0000596652Hz,0000000000c,0000000.000s, 028.6C,00002191
2021-10-03 10:33:13 r, 00.00m,0000596408Hz,0000000000c,0000000.000s, 030.2C,00002191
2021-10-03 10:43:13 r, 00.00m,0000596268Hz,0000000000c,0000000.000s, 031.9C,00002191
2021-10-03 10:53:16 r, 00.00m,0000595898Hz,0000000000c,0000000.000s, 034.1C,00002191
2021-10-03 11:03:13 r, 00.00m,0000595870Hz,0000000000c,0000000.000s, 034.8C,00002191
2021-10-03 11:13:13 r, 00.00m,0000595871Hz,0000000000c,0000000.000s, 034.8C,00002191
2021-10-03 11:23:14 r, 00.00m,0000595895Hz,0000000000c,0000000.000s, 035.1C,00002191
2021-10-03 11:33:13 r, 00.00m,0000595839Hz,0000000000c,0000000.000s, 035.1C,00002191
2021-10-03 11:43:13 r, 00.00m,0000595752Hz,0000000000c,0000000.000s, 035.7C,00002191
2021-10-03 11:53:15 r, 00.00m,0000595705Hz,0000000000c,0000000.000s, 036.4C,00002191
2021-10-03 12:03:13 r, 00.00m,0000595520Hz,0000000000c,0000000.000s, 037.3C,00002191
2021-10-03 12:13:13 r, 00.00m,0000595631Hz,0000000000c,0000000.000s, 037.3C,00002191
2021-10-03 12:23:16 r, 00.00m,0000595599Hz,0000000000c,0000000.000s, 037.3C,00002191
2021-10-03 12:33:13 r, 00.00m,0000595376Hz,0000000000c,0000000.000s, 038.0C,00002191
2021-10-03 12:43:13 r, 00.00m,0000595557Hz,0000000000c,0000000.000s, 037.7C,00002191
2021-10-03 12:53:16 r, 00.00m,0000595678Hz,0000000000c,0000000.000s, 036.4C,00002191
2021-10-03 13:03:13 r, 00.00m,0000595527Hz,0000000000c,0000000.000s, 037.0C,00002191
2021-10-03 13:13:13 r, 00.00m,0000595285Hz,0000000000c,0000000.000s, 039.0C,00002191
2021-10-03 13:23:14 r, 00.00m,0000595024Hz,0000000000c,0000000.000s, 041.2C,00002191
2021-10-03 13:33:13 r, 00.00m,0000594956Hz,0000000000c,0000000.000s, 042.5C,00002191
2021-10-03 13:43:13 r, 00.00m,0000594688Hz,0000000000c,0000000.000s, 043.5C,00002191
2021-10-03 13:53:14 r, 00.00m,0000594651Hz,0000000000c,0000000.000s, 044.1C,00002191
2021-10-03 14:03:14 r, 00.00m,0000594607Hz,0000000000c,0000000.000s, 044.8C,00002191
2021-10-03 14:13:13 r, 00.00m,0000594520Hz,0000000000c,0000000.000s, 044.8C,00002191
2021-10-03 14:23:14 r, 00.00m,0000594457Hz,0000000000c,0000000.000s, 044.8C,00002191
2021-10-03 14:33:13 r, 00.00m,0000594506Hz,0000000000c,0000000.000s, 045.1C,00002191
2021-10-03 14:43:13 r, 00.00m,0000594590Hz,0000000000c,0000000.000s, 044.8C,00002191
2021-10-03 14:53:16 r, 00.00m,0000594516Hz,0000000000c,0000000.000s, 044.8C,00002191
2021-10-03 15:03:13 r, 00.00m,0000594482Hz,0000000000c,0000000.000s, 045.1C,00002191
2021-10-03 15:13:13 r, 00.00m,0000594564Hz,0000000000c,0000000.000s, 045.4C,00002191
2021-10-03 15:23:15 r, 00.00m,0000594413Hz,0000000000c,0000000.000s, 045.1C,00002191
2021-10-03 15:33:13 r, 00.00m,0000594482Hz,0000000000c,0000000.000s, 044.8C,00002191
2021-10-03 15:43:13 r, 00.00m,0000594500Hz,0000000000c,0000000.000s, 044.8C,00002191
2021-10-03 15:53:15 r, 00.00m,0000594633Hz,0000000000c,0000000.000s, 044.4C,00002191
2021-10-03 16:03:16 r, 00.00m,0000594608Hz,0000000000c,0000000.000s, 044.4C,00002191
2021-10-03 16:13:13 r, 00.00m,0000594654Hz,0000000000c,0000000.000s, 044.1C,00002191
2021-10-03 16:23:15 r, 00.00m,0000594644Hz,0000000000c,0000000.000s, 043.8C,00002191
2021-10-03 16:33:14 r, 00.00m,0000594694Hz,0000000000c,0000000.000s, 043.5C,00002191
2021-10-03 16:43:14 r, 00.00m,0000594919Hz,0000000000c,0000000.000s, 042.8C,00002191
2021-10-03 16:53:16 r, 00.00m,0000594895Hz,0000000000c,0000000.000s, 042.5C,00002191
2021-10-03 17:03:14 r, 00.00m,0000595037Hz,0000000000c,0000000.000s, 041.9C,00002191
2021-10-03 17:13:14 r, 00.00m,0000595094Hz,0000000000c,0000000.000s, 041.5C,00002191
2021-10-03 17:23:14 r, 00.00m,0000595145Hz,0000000000c,0000000.000s, 040.9C,00002191
2021-10-03 17:33:15 r, 00.00m,0000595207Hz,0000000000c,0000000.000s, 040.2C,00002191
2021-10-03 17:43:14 r, 00.00m,0000595286Hz,0000000000c,0000000.000s, 039.6C,00002191
2021-10-03 17:53:15 r, 00.00m,0000595364Hz,0000000000c,0000000.000s, 039.0C,00002191
2021-10-03 18:03:14 r, 00.00m,0000595513Hz,0000000000c,0000000.000s, 038.3C,00002191
2021-10-03 18:13:14 r, 00.00m,0000505163Hz,0000000000c,0000000.000s, 037.7C,00002191
2021-10-03 18:23:14 r, 05.83m,0000394554Hz,0000000000c,0000000.000s, 037.0C,00002191
2021-10-03 18:33:16 r, 06.07m,0000316582Hz,0000000000c,0000000.000s, 036.0C,00002191
2021-10-03 18:43:14 r, 06.46m,0000220891Hz,0000000000c,0000000.000s, 034.8C,00002191
2021-10-03 18:53:16 r, 07.06m,0000126602Hz,0000000000c,0000000.000s, 033.5C,00002191
2021-10-03 19:03:14 r, 07.91m,0000057666Hz,0000000000c,0000000.000s, 032.5C,00002191
2021-10-03 19:13:14 r, 09.21m,0000017597Hz,0000000000c,0000000.000s, 031.9C,00002191
2021-10-03 19:23:16 r, 11.05m,0000003205Hz,0000000000c,0000000.000s, 030.9C,00002191
2021-10-03 19:33:15 r, 13.29m,0000000407Hz,0000000000c,0000000.000s, 030.2C,00002191
2021-10-03 19:43:14 r, 15.47m,0000000055Hz,0000008491c,0000000.018s, 029.9C,00002191
2021-10-03 19:53:14 r, 17.22m,0000000011Hz,0000042700c,0000000.093s, 029.6C,00002191
2021-10-03 20:03:15 r, 18.75m,0000000003Hz,0000173711c,0000000.377s, 029.3C,00002191
2021-10-03 20:13:14 r, 19.93m,0000000001Hz,0000511863c,0000001.111s, 029.0C,00002191
2021-10-03 20:23:15 r, 20.52m,0000000001Hz,0000877746c,0000001.905s, 028.6C,00002191
2021-10-03 20:33:14 r, 20.71m,0000000000Hz,0001040285c,0000002.258s, 028.3C,00002191
2021-10-03 20:43:14 r, 20.75m,0000000000Hz,0001079496c,0000002.343s, 028.0C,00002191
2021-10-03 20:53:16 r, 20.75m,0000000000Hz,0001080805c,0000002.345s, 027.7C,00002191
2021-10-03 21:03:14 r, 20.75m,0000000000Hz,0001073822c,0000002.330s, 027.7C,00002191
2021-10-03 21:13:14 r, 20.74m,0000000001Hz,0001066709c,0000002.315s, 027.3C,00002191
2021-10-03 21:23:17 r, 20.74m,0000000001Hz,0001071758c,0000002.326s, 027.3C,00002191
2021-10-03 21:33:14 r, 20.75m,0000000000Hz,0001079138c,0000002.342s, 027.3C,00002191
2021-10-03 21:43:14 r, 20.75m,0000000001Hz,0001088106c,0000002.361s, 027.3C,00002191
2021-10-03 21:53:14 r, 20.76m,0000000001Hz,0001096814c,0000002.380s, 027.0C,00002191
2021-10-03 22:03:15 r, 20.79m,0000000000Hz,0001121896c,0000002.435s, 027.0C,00002191
2021-10-03 22:13:14 r, 20.80m,0000000000Hz,0001131086c,0000002.455s, 027.0C,00002191
2021-10-03 22:23:16 r, 20.82m,0000000000Hz,0001147498c,0000002.490s, 026.7C,00002191
2021-10-03 22:33:14 r, 20.82m,0000000000Hz,0001161944c,0000002.522s, 026.7C,00002191
2021-10-03 22:43:14 r, 20.84m,0000000000Hz,0001172829c,0000002.545s, 026.4C,00002191
2021-10-03 22:53:14 r, 20.84m,0000000000Hz,0001178646c,0000002.558s, 026.4C,00002191
2021-10-03 23:03:16 r, 20.84m,0000000001Hz,0001178362c,0000002.557s, 026.4C,00002191
2021-10-03 23:13:14 r, 20.86m,0000000000Hz,0001197766c,0000002.599s, 026.1C,00002191
2021-10-03 23:23:16 r, 20.90m,0000000000Hz,0001243898c,0000002.699s, 026.1C,00002191
2021-10-03 23:33:14 r, 20.92m,0000000000Hz,0001269096c,0000002.754s, 026.1C,00002191
2021-10-03 23:43:14 r, 20.93m,0000000001Hz,0001272736c,0000002.762s, 026.1C,00002191
2021-10-03 23:53:16 r, 20.96m,0000000001Hz,0001300348c,0000002.822s, 026.1C,00002191
